When you browse on this site, cookies collect data to enhance your experience and personalize the content and advertising you see.
Visit our Privacy Policy to learn more. By continuing to use the site, you agree to this use of cookies and data.
  • In Switzerland
  • List of Countries
  • For 7 days
  • Water Temperature
  • Satellite Maps
  • Weather Map
  • Weather Widgets
  • user-avatar
    Login

    Hourly Weather Naryn

    Today, 17 June, Monday

    Time Temperature Precipitation Wind Pressure Humidity
    00:00 +8°C° 0 mm 1 mps 567 mmHg 59%
    01:00 +7°C° 0 mm 1 mps 566 mmHg 60%
    02:00 +7°C° 0 mm 1 mps 566 mmHg 62%
    03:00 +7°C° 0 mm 1 mps 566 mmHg 62%
    04:00 +8°C° 0 mm 1 mps 566 mmHg 62%
    05:00 +8°C° 0 mm 1 mps 566 mmHg 62%
    06:00 +10°C° 0 mm 1 mps 567 mmHg 55%
    07:00 +12°C° 0 mm 1 mps 568 mmHg 49%
    08:00 +15°C° 0 mm 1 mps 570 mmHg 42%
    09:00 +16°C° 0 mm 1 mps 570 mmHg 39%
    10:00 +17°C° 0 mm 2 mps 570 mmHg 36%
    11:00 +18°C° 0 mm 3 mps 570 mmHg 32%
    12:00 +18°C° 0 mm 3 mps 570 mmHg 31%
    13:00 +19°C° 0 mm 4 mps 570 mmHg 30%
    14:00 +20°C° 0 mm 4 mps 570 mmHg 29%
    15:00 +19°C° 0 mm 4 mps 570 mmHg 29%
    16:00 +19°C° 0 mm 5 mps 570 mmHg 29%
    17:00 +19°C° 0 mm 5 mps 570 mmHg 29%
    18:00 +15°C° 0 mm 4 mps 569 mmHg 34%
    19:00 +13°C° 0 mm 3 mps 568 mmHg 38%
    20:00 +11°C° 0 mm 1 mps 567 mmHg 43%
    21:00 +11°C° 0 mm 1 mps 567 mmHg 47%
    22:00 +10°C° 0 mm 1 mps 566 mmHg 51%
    23:00 +9°C° 0 mm 1 mps 566 mmHg 55%

    Tomorrow, 18 June, Tuesday

    Time Temperature Precipitation Wind Pressure Humidity
    00:00 +8°C° 0 mm 1 mps 565 mmHg 57%
    01:00 +7°C° 0 mm 0 mps 565 mmHg 60%
    02:00 +7°C° 0 mm 0 mps 565 mmHg 62%
    03:00 +7°C° 0 mm 0 mps 565 mmHg 62%
    04:00 +8°C° 0 mm 1 mps 565 mmHg 61%
    05:00 +8°C° 0 mm 1 mps 565 mmHg 60%
    06:00 +10°C° 0 mm 1 mps 566 mmHg 52%
    07:00 +12°C° 0 mm 0 mps 567 mmHg 44%
    08:00 +14°C° 0 mm 0 mps 568 mmHg 36%
    09:00 +16°C° 0 mm 1 mps 569 mmHg 32%
    10:00 +19°C° 0 mm 1 mps 569 mmHg 28%
    11:00 +19°C° 0 mm 2 mps 570 mmHg 24%
    12:00 +20°C° 0 mm 3 mps 570 mmHg 23%
    13:00 +20°C° 0 mm 4 mps 570 mmHg 22%
    14:00 +21°C° 0 mm 4 mps 570 mmHg 20%
    15:00 +21°C° 0 mm 5 mps 570 mmHg 22%
    16:00 +20°C° 0 mm 5 mps 570 mmHg 24%
    17:00 +20°C° 0 mm 5 mps 570 mmHg 25%
    18:00 +18°C° 0 mm 4 mps 569 mmHg 31%
    19:00 +16°C° 0 mm 3 mps 569 mmHg 38%
    20:00 +14°C° 0 mm 2 mps 568 mmHg 44%
    21:00 +13°C° 0 mm 2 mps 568 mmHg 49%
    22:00 +12°C° 0 mm 1 mps 568 mmHg 54%
    23:00 +11°C° 0 mm 1 mps 567 mmHg 58%

    Day after tomorrow, 19 June, Wednesday

    Time Temperature Precipitation Wind Pressure Humidity
    00:00 +11°C° 0 mm 1 mps 567 mmHg 59%
    01:00 +11°C° 0 mm 1 mps 567 mmHg 60%
    02:00 +11°C° 0 mm 1 mps 567 mmHg 61%
    03:00 +11°C° 0.1 mm 1 mps 567 mmHg 62%
    04:00 +10°C° 0.1 mm 2 mps 566 mmHg 63%
    05:00 +10°C° 0.1 mm 2 mps 566 mmHg 63%
    06:00 +12°C° 0.1 mm 1 mps 567 mmHg 59%
    07:00 +13°C° 0.1 mm 1 mps 568 mmHg 55%
    08:00 +14°C° 0.1 mm 1 mps 568 mmHg 50%
    09:00 +14°C° 0.1 mm 1 mps 568 mmHg 48%
    10:00 +15°C° 0.1 mm 1 mps 569 mmHg 45%
    11:00 +16°C° 0.1 mm 1 mps 569 mmHg 43%
    12:00 +17°C° 0.1 mm 2 mps 569 mmHg 41%
    13:00 +18°C° 0.1 mm 3 mps 569 mmHg 39%
    14:00 +19°C° 0.1 mm 4 mps 570 mmHg 37%
    15:00 +18°C° 0.2 mm 4 mps 570 mmHg 36%
    16:00 +17°C° 0.2 mm 5 mps 570 mmHg 36%
    17:00 +17°C° 0.2 mm 5 mps 570 mmHg 35%
    18:00 +15°C° 0.1 mm 4 mps 569 mmHg 43%
    19:00 +13°C° 0.1 mm 3 mps 569 mmHg 50%
    20:00 +12°C° 0.1 mm 2 mps 568 mmHg 58%
    21:00 +10°C° 0.1 mm 2 mps 568 mmHg 61%
    22:00 +9°C° 0.1 mm 2 mps 567 mmHg 64%
    23:00 +10°C° 0.1 mm 1 mps 567 mmHg 68%

    20 June, Thursday

    Time Temperature Precipitation Wind Pressure Humidity
    00:00 +9°C° 0 mm 1 mps 567 mmHg 70%
    01:00 +8°C° 0 mm 1 mps 566 mmHg 73%
    02:00 +7°C° 0 mm 0 mps 566 mmHg 76%
    03:00 +7°C° 0 mm 0 mps 566 mmHg 75%
    04:00 +7°C° 0 mm 0 mps 566 mmHg 75%
    05:00 +7°C° 0 mm 0 mps 566 mmHg 74%
    06:00 +10°C° 0 mm 1 mps 567 mmHg 65%
    07:00 +12°C° 0 mm 1 mps 568 mmHg 55%
    08:00 +15°C° 0 mm 1 mps 569 mmHg 45%
    09:00 +16°C° 0 mm 1 mps 569 mmHg 40%
    10:00 +17°C° 0 mm 2 mps 570 mmHg 34%
    11:00 +18°C° 0 mm 2 mps 570 mmHg 28%
    12:00 +19°C° 0 mm 2 mps 570 mmHg 26%
    13:00 +20°C° 0 mm 3 mps 570 mmHg 24%
    14:00 +21°C° 0 mm 3 mps 571 mmHg 22%
    15:00 +21°C° 0 mm 3 mps 570 mmHg 22%
    16:00 +20°C° 0 mm 4 mps 570 mmHg 23%
    17:00 +20°C° 0 mm 4 mps 570 mmHg 24%
    18:00 +18°C° 0 mm 3 mps 569 mmHg 30%
    19:00 +15°C° 0 mm 2 mps 569 mmHg 36%
    20:00 +13°C° 0 mm 1 mps 568 mmHg 42%
    21:00 +12°C° 0 mm 1 mps 568 mmHg 44%
    22:00 +11°C° 0 mm 1 mps 567 mmHg 46%
    23:00 +11°C° 0 mm 1 mps 567 mmHg 48%

    21 June, Friday

    Time Temperature Precipitation Wind Pressure Humidity
    00:00 +10°C° 0 mm 1 mps 567 mmHg 50%
    01:00 +9°C° 0 mm 0 mps 567 mmHg 52%
    02:00 +9°C° 0 mm 0 mps 566 mmHg 54%
    03:00 +9°C° 0 mm 0 mps 566 mmHg 56%
    04:00 +9°C° 0 mm 0 mps 566 mmHg 58%
    05:00 +9°C° 0 mm 0 mps 566 mmHg 60%
    06:00 +11°C° 0 mm 0 mps 567 mmHg 52%
    07:00 +13°C° 0 mm 0 mps 568 mmHg 45%
    08:00 +15°C° 0 mm 0 mps 569 mmHg 38%
    09:00 +18°C° 0 mm 1 mps 570 mmHg 35%
    10:00 +20°C° 0 mm 1 mps 570 mmHg 33%
    11:00 +20°C° 0 mm 2 mps 571 mmHg 30%
    12:00 +21°C° 0.1 mm 2 mps 571 mmHg 29%
    13:00 +21°C° 0.1 mm 3 mps 571 mmHg 29%
    14:00 +22°C° 0.1 mm 3 mps 571 mmHg 28%
    15:00 +21°C° 0.3 mm 4 mps 571 mmHg 31%
    16:00 +20°C° 0.3 mm 4 mps 571 mmHg 34%
    17:00 +19°C° 0.3 mm 4 mps 570 mmHg 38%
    18:00 +17°C° 0 mm 4 mps 570 mmHg 46%
    19:00 +14°C° 0 mm 3 mps 569 mmHg 54%
    20:00 +13°C° 0 mm 2 mps 568 mmHg 63%
    21:00 +12°C° 0 mm 2 mps 568 mmHg 65%
    22:00 +10°C° 0 mm 2 mps 568 mmHg 67%
    23:00 +10°C° 0 mm 2 mps 568 mmHg 69%

    22 June, Saturday

    Time Temperature Precipitation Wind Pressure Humidity
    00:00 +9°C° 0 mm 2 mps 567 mmHg 69%
    01:00 +9°C° 0 mm 2 mps 567 mmHg 68%
    02:00 +10°C° 0 mm 1 mps 566 mmHg 68%
    03:00 +10°C° 0 mm 1 mps 566 mmHg 67%
    04:00 +10°C° 0 mm 1 mps 566 mmHg 66%
    05:00 +10°C° 0 mm 1 mps 566 mmHg 66%
    06:00 +12°C° 0 mm 1 mps 567 mmHg 57%
    07:00 +14°C° 0 mm 1 mps 568 mmHg 48%
    08:00 +16°C° 0 mm 0 mps 570 mmHg 40%
    09:00 +19°C° 0 mm 1 mps 570 mmHg 36%
    10:00 +20°C° 0 mm 1 mps 570 mmHg 32%
    11:00 +21°C° 0 mm 1 mps 571 mmHg 28%
    12:00 +21°C° 0 mm 2 mps 571 mmHg 27%
    13:00 +23°C° 0 mm 2 mps 571 mmHg 26%
    14:00 +22°C° 0 mm 3 mps 571 mmHg 25%
    15:00 +21°C° 0.1 mm 4 mps 571 mmHg 30%
    16:00 +20°C° 0.1 mm 4 mps 570 mmHg 34%
    17:00 +19°C° 0.1 mm 5 mps 570 mmHg 39%
    18:00 +17°C° 0.1 mm 4 mps 570 mmHg 45%
    19:00 +16°C° 0.1 mm 3 mps 569 mmHg 51%
    20:00 +14°C° 0.1 mm 2 mps 569 mmHg 57%
    21:00 +13°C° 0.1 mm 2 mps 569 mmHg 61%
    22:00 +13°C° 0.1 mm 1 mps 569 mmHg 65%
    23:00 +12°C° 0.1 mm 1 mps 569 mmHg 69%
    Show more